| time (UTC) | temp F | wind direction | speed MPH | gust MPH | rain 1hr in | rain 24hr in | rain mn in | humidity % | barometer mb |
| 20260507064518 | 61 | 297 | 0.0 | 4.0 | 0.00 | 0.09 | 0.00 | 73 | 1011.9 |
| 20260507063015 | 60 | 289 | 0.0 | 2.0 | 0.00 | 0.09 | 0.00 | 76 | 1011.8 |
| 20260507061513 | 59 | 231 | 0.0 | 4.0 | 0.00 | 0.09 | 0.00 | 78 | 1011.7 |
| 20260507060018 | 57 | 281 | 0.0 | 2.0 | 0.00 | 0.09 | 0.00 | 84 | 1011.5 |
| 20260507054509 | 55 | 266 | 0.0 | 2.0 | 0.00 | 0.13 | 0.00 | 88 | 1011.4 |
| 20260507053007 | 54 | 263 | 0.0 | 0.0 | 0.00 | 0.13 | 0.00 | 90 | 1011.3 |
| 20260507051505 | 53 | 263 | 0.0 | 0.0 | 0.00 | 0.13 | 0.00 | 91 | 1011.1 |
| 20260507050012 | 53 | 263 | 0.0 | 0.0 | 0.00 | 0.13 | 0.00 | 90 | 1010.9 |
| 20260507044502 | 52 | 263 | 0.0 | 0.0 | 0.00 | 0.28 | 0.00 | 89 | 1010.7 |
| 20260507043002 | 52 | 263 | 0.0 | 0.0 | 0.00 | 0.28 | 0.00 | 88 | 1010.6 |
| 20260507041559 | 52 | 263 | 0.0 | 0.0 | 0.00 | 0.28 | 0.00 | 87 | 1010.5 |
| 20260507040105 | 53 | 263 | 0.0 | 0.0 | 0.00 | 0.28 | 0.00 | 87 | 1010.3 |
| 20260507034602 | 53 | 263 | 0.0 | 1.0 | 0.00 | 0.28 | 0.00 | 86 | 1010.3 |
| 20260507033105 | 54 | 271 | 0.0 | 0.0 | 0.00 | 0.28 | 0.00 | 87 | 1010.2 |
| 20260507031600 | 54 | 271 | 0.0 | 0.0 | 0.00 | 0.28 | 0.00 | 86 | 1010.2 |
| 20260507030107 | 54 | 271 | 0.0 | 0.0 | 0.00 | 0.28 | 0.00 | 85 | 1010.2 |
| 20260507024606 | 54 | 271 | 0.0 | 1.0 | 0.00 | 0.35 | 0.00 | 86 | 1010.1 |
| 20260507023049 | 54 | 157 | 0.0 | 0.0 | 0.00 | 0.35 | 0.00 | 85 | 1010.1 |
| 20260507021554 | 54 | 155 | 0.0 | 0.0 | 0.00 | 0.35 | 0.00 | 85 | 1010.2 |
| 20260507020056 | 55 | 155 | 0.0 | 0.0 | 0.00 | 0.35 | 0.00 | 84 | 1010.2 |
| 20260507014552 | 55 | 155 | 0.0 | 0.0 | 0.00 | 0.44 | 0.00 | 83 | 1010.1 |
| 20260507013042 | 56 | 155 | 0.0 | 0.0 | 0.00 | 0.44 | 0.00 | 82 | 1009.9 |
| 20260507011546 | 56 | 155 | 0.0 | 0.0 | 0.00 | 0.44 | 0.00 | 81 | 1009.9 |
| 20260507010043 | 56 | 155 | 0.0 | 1.0 | 0.00 | 0.44 | 0.00 | 81 | 1009.8 |
| 20260507004536 | 57 | 195 | 0.0 | 0.0 | 0.00 | 0.44 | 0.00 | 81 | 1009.7 |
| 20260507003036 | 57 | 175 | 0.0 | 0.0 | 0.00 | 0.44 | 0.00 | 80 | 1009.8 |
| 20260507001536 | 57 | 173 | 0.0 | 1.0 | 0.00 | 0.44 | 0.00 | 80 | 1009.8 |
| 20260507000134 | 57 | 157 | 0.0 | 0.0 | 0.00 | 0.44 | 0.00 | 80 | 1009.8 |
| 20260506234541 | 57 | 157 | 0.0 | 1.0 | 0.00 | 0.44 | 0.00 | 79 | 1009.9 |
| 20260506233032 | 57 | 242 | 0.0 | 0.0 | 0.00 | 0.44 | 0.00 | 79 | 1009.8 |
| 20260506231533 | 57 | 243 | 0.0 | 1.0 | 0.00 | 0.44 | 0.00 | 79 | 1009.8 |
| 20260506230028 | 58 | 140 | 0.0 | 0.0 | 0.00 | 0.44 | 0.00 | 79 | 1009.7 |
| 20260506224527 | 58 | 140 | 0.0 | 0.0 | 0.00 | 0.44 | 0.00 | 78 | 1009.7 |
| 20260506223026 | 58 | 140 | 0.0 | 2.0 | 0.00 | 0.44 | 0.00 | 79 | 1009.8 |
| 20260506221523 | 59 | 146 | 0.0 | 0.0 | 0.00 | 0.44 | 0.00 | 79 | 1009.8 |
| 20260506220021 | 59 | 146 | 0.0 | 2.0 | 0.00 | 0.44 | 0.00 | 77 | 1009.9 |
| 20260506214520 | 60 | 138 | 0.0 | 0.0 | 0.00 | 0.44 | 0.44 | 77 | 1009.6 |
| 20260506213019 | 60 | 138 | 0.0 | 2.0 | 0.00 | 0.44 | 0.44 | 76 | 1009.6 |
| 20260506211522 | 61 | 140 | 0.0 | 2.0 | 0.00 | 0.44 | 0.44 | 76 | 1009.4 |
| 20260506210019 | 61 | 140 | 0.0 | 2.0 | 0.00 | 0.44 | 0.44 | 76 | 1009.3 |
| 20260506204517 | 62 | 135 | 0.0 | 2.0 | 0.00 | 0.44 | 0.44 | 76 | 1009.2 |
| 20260506203016 | 62 | 121 | 0.0 | 3.0 | 0.00 | 0.44 | 0.44 | 76 | 1009.0 |
| 20260506201518 | 62 | 157 | 0.0 | 3.0 | 0.00 | 0.44 | 0.44 | 77 | 1009.1 |
| 20260506200015 | 63 | 135 | 0.0 | 6.0 | 0.00 | 0.44 | 0.44 | 78 | 1008.9 |
| 20260506194514 | 63 | 109 | 1.0 | 4.0 | 0.00 | 0.44 | 0.44 | 79 | 1008.7 |
| 20260506193015 | 63 | 165 | 0.0 | 4.0 | 0.00 | 0.44 | 0.44 | 79 | 1008.5 |
| 20260506191512 | 64 | 154 | 1.0 | 5.0 | 0.00 | 0.44 | 0.44 | 80 | 1008.2 |
| 20260506190011 | 64 | 144 | 0.0 | 6.0 | 0.00 | 0.44 | 0.44 | 80 | 1008.0 |
| 20260506184511 | 64 | 123 | 1.0 | 7.0 | 0.00 | 0.44 | 0.44 | 81 | 1007.8 |
| 20260506183012 | 64 | 121 | 1.0 | 4.0 | 0.00 | 0.44 | 0.44 | 82 | 1007.8 |
| 20260506181509 | 65 | 133 | 1.0 | 4.0 | 0.00 | 0.44 | 0.44 | 81 | 1007.7 |
| 20260506180013 | 65 | 136 | 0.0 | 4.0 | 0.00 | 0.44 | 0.44 | 81 | 1007.5 |
| 20260506174508 | 65 | 134 | 0.0 | 4.0 | 0.00 | 0.44 | 0.44 | 80 | 1007.4 |
| 20260506173016 | 66 | 145 | 0.0 | 7.0 | 0.00 | 0.44 | 0.44 | 80 | 1007.3 |
| 20260506171506 | 66 | 198 | 0.0 | 9.0 | 0.00 | 0.44 | 0.44 | 80 | 1007.1 |
| 20260506170005 | 66 | 165 | 1.0 | 5.0 | 0.00 | 0.44 | 0.44 | 81 | 1007.0 |
| 20260506164505 | 67 | 227 | 1.0 | 7.0 | 0.00 | 0.44 | 0.44 | 81 | 1007.0 |
| 20260506163005 | 67 | 142 | 0.0 | 8.0 | 0.00 | 0.44 | 0.44 | 81 | 1007.0 |
| 20260506161503 | 67 | 123 | 0.0 | 5.0 | 0.00 | 0.44 | 0.44 | 81 | 1007.1 |
| 20260506160005 | 68 | 133 | 2.0 | 10.0 | 0.00 | 0.44 | 0.44 | 80 | 1007.2 |
| 20260506154503 | 68 | 173 | 0.0 | 4.0 | 0.00 | 0.44 | 0.44 | 79 | 1007.2 |
| 20260506153002 | 68 | 122 | 1.0 | 4.0 | 0.00 | 0.44 | 0.44 | 78 | 1007.2 |
| 20260506151603 | 68 | 144 | 1.0 | 6.0 | 0.00 | 0.44 | 0.44 | 78 | 1007.0 |
| 20260506144559 | 69 | 143 | 1.0 | 8.0 | 0.00 | 0.44 | 0.44 | 78 | 1007.1 |
| 20260506143057 | 68 | 115 | 1.0 | 8.0 | 0.00 | 0.44 | 0.44 | 80 | 1007.1 |
| 20260506141554 | 67 | 107 | 1.0 | 5.0 | 0.00 | 0.44 | 0.44 | 80 | 1007.4 |
| 20260506140052 | 67 | 134 | 1.0 | 7.0 | 0.00 | 0.44 | 0.44 | 81 | 1007.6 |
| 20260506134550 | 67 | 134 | 0.0 | 4.0 | 0.00 | 0.44 | 0.44 | 82 | 1007.7 |
| 20260506133049 | 67 | 157 | 2.0 | 9.0 | 0.00 | 0.44 | 0.44 | 81 | 1007.8 |
| 20260506131553 | 66 | 133 | 0.0 | 2.0 | 0.01 | 0.44 | 0.44 | 88 | 1007.9 |
| 20260506130100 | 65 | 134 | 0.0 | 3.0 | 0.01 | 0.44 | 0.44 | 89 | 1008.0 |
| 20260506124553 | 64 | 277 | 0.0 | 1.0 | 0.01 | 0.44 | 0.44 | 88 | 1008.0 |
| 20260506123044 | 65 | 263 | 1.0 | 9.0 | 0.01 | 0.44 | 0.44 | 84 | 1008.2 |
| 20260506121543 | 68 | 273 | 1.0 | 9.0 | 0.00 | 0.43 | 0.43 | 81 | 1008.2 |
| 20260506120041 | 68 | 121 | 1.0 | 7.0 | 0.00 | 0.43 | 0.43 | 81 | 1007.8 |
| 20260506114539 | 68 | 140 | 0.0 | 4.0 | 0.00 | 0.43 | 0.43 | 82 | 1008.0 |
| 20260506113040 | 68 | 117 | 0.0 | 10.0 | 0.00 | 0.43 | 0.43 | 84 | 1008.0 |
| 20260506111530 | 67 | 142 | 3.0 | 9.0 | 0.00 | 0.43 | 0.43 | 88 | 1008.1 |
| 20260506110027 | 65 | 118 | 3.0 | 10.0 | 0.00 | 0.43 | 0.43 | 93 | 1008.3 |
| 20260506104527 | 65 | 119 | 0.0 | 8.0 | 0.00 | 0.44 | 0.43 | 97 | 1008.4 |
| 20260506103022 | 64 | 109 | 2.0 | 12.0 | 0.00 | 0.44 | 0.43 | 98 | 1008.7 |
| 20260506101533 | 63 | 130 | 0.0 | 10.0 | 0.02 | 0.44 | 0.43 | 98 | 1008.7 |
| 20260506100015 | 62 | 111 | 0.0 | 8.0 | 0.02 | 0.44 | 0.43 | 98 | 1008.7 |
| 20260506094522 | 62 | 124 | 0.0 | 9.0 | 0.03 | 0.47 | 0.43 | 98 | 1008.6 |
| 20260506093014 | 61 | 130 | 0.0 | 2.0 | 0.03 | 0.47 | 0.43 | 98 | 1008.7 |
| 20260506091507 | 61 | 132 | 0.0 | 4.0 | 0.02 | 0.46 | 0.42 | 98 | 1008.9 |
| 20260506090006 | 60 | 132 | 0.0 | 8.0 | 0.02 | 0.45 | 0.41 | 98 | 1008.9 |
| 20260506084504 | 60 | 149 | 0.0 | 1.0 | 0.01 | 0.44 | 0.40 | 98 | 1009.1 |
| 20260506083004 | 60 | 138 | 0.0 | 2.0 | 0.01 | 0.44 | 0.40 | 98 | 1009.2 |
| 20260506081602 | 59 | 128 | 0.0 | 2.0 | 0.01 | 0.43 | 0.39 | 98 | 1008.9 |
| 20260506081501 | 59 | 126 | 0.0 | 2.0 | 0.01 | 0.43 | 0.39 | 98 | 1008.8 |
| 20260506073054 | 59 | 138 | 0.0 | 1.0 | 0.03 | 0.53 | 0.39 | 98 | 1008.8 |
| 20260506071552 | 58 | 134 | 0.0 | 0.0 | 0.03 | 0.52 | 0.39 | 98 | 1009.0 |
| 20260506070150 | 58 | 158 | 0.0 | 1.0 | 0.03 | 0.52 | 0.39 | 98 | 1009.0 |